Dewpoint
60 62 62 61 59 60 60 61 64 65 63 63 62 63 63 63 62 62 62 61 61 61 65 64 62 61 59 55 51 49 46 45
61 62 62 63 61 61 62 63 63 62 61 59 60 60 60 60 59 60 60 59 59 58 61 62 60 59 58 55 52 49 48 46
60 61 62 62 62 61 63 63 62 61 60 58 59 58 58 56 56 56 56 56 56 56 59 59 59 59 56 53 51 48 47 47
60 61 62 63 62 63 63 62 62 61 60 60 59 58 55 52 53 54 54 54 54 57 59 59 60 57 54 54 52 48 45 47
59 61 62 62 62 64 63 63 62 61 61 59 57 53 50 50 51 52 52 53 54 56 57 60 59 57 55 54 52 50 47 46
58 60 61 62 63 63 64 63 61 60 60 59 56 55 54 50 51 52 51 53 54 56 59 60 59 57 56 54 53 52 51 50
59 61 61 61 62 63 64 63 61 61 61 59 57 58 50 50 50 51 52 52 52 55 59 60 59 57 56 56 55 53 52 52
61 60 60 61 61 62 63 62 61 62 60 58 59 56 53 52 51 50 50 51 52 54 56 58 59 58 57 57 55 55 54 52
60 61 60 61 61 62 62 61 61 60 59 59 59 54 51 51 52 51 50 50 51 54 54 54 56 56 57 57 57 57 56 54
53 59 60 61 61 62 62 60 59 58 58 58 55 52 51 51 54 53 53 52 51 54 53 52 52 52 52 53 54 54 55 54
56 60 59 60 61 62 62 60 59 58 58 58 55 52 52 52 55 52 51 52 51 52 52 51 51 51 51 51 52 53 52 51
57 59 58 60 61 62 61 60 60 58 58 58 56 52 52 54 53 52 52 51 50 50 50 49 49 49 50 50 49 49 48 47
57 59 59 60 60 61 61 61 60 59 58 57 55 53 53 53 52 50 51 50 50 48 48 47 47 47 48 47 45 45 45 44
56 58 58 59 59 59 60 60 60 59 58 56 54 52 52 52 51 50 49 49 49 47 46 46 45 47 47 46 45 44 44 43
56 57 57 58 58 58 59 60 60 59 57 55 53 51 52 52 50 49 48 48 47 47 47 46 46 45 45 43 43 43 42 41
56 57 57 57 57 58 58 59 59 57 55 54 53 52 52 52 50 48 48 47 46 45 46 45 45 44 41 43 43 43 41 41
56 57 57 57 57 57 58 58 58 57 55 54 54 53 52 51 50 48 48 46 45 44 43 44 44 38 37 39 41 41 40 40
53 56 57 57 57 58 57 57 58 56 55 54 54 53 51 51 49 47 46 46 46 45 44 43 43 42 37 38 39 40 40 40
50 54 57 57 57 57 59 58 57 56 55 54 54 54 52 51 48 47 47 47 46 44 44 44 44 38 36 37 36 42 41 42
Lifted_Index
-4 -3 -3 -2 -2 -2 -2 -2 -2 -2 -2 -2 -1 -1 -1 -1 -1 -0 0 0 0 -0 -1 -1 -0 1 2 4 6 8 8 9
-4 -4 -3 -3 -2 -2 -2 -2 -2 -2 -2 -1 -1 -1 -0 -0 0 1 1 2 1 1 0 -0 0 1 2 4 6 7 8 8
-4 -4 -3 -3 -3 -3 -3 -2 -2 -2 -1 -1 -0 0 1 1 2 3 4 4 3 2 1 1 1 1 2 4 5 7 8 8
-4 -4 -4 -4 -4 -3 -3 -2 -2 -1 -1 -0 0 1 2 2 3 5 5 5 4 3 2 1 1 2 2 4 5 7 8 8
-4 -4 -4 -4 -4 -4 -3 -2 -2 -1 -0 -0 0 1 2 3 5 6 6 6 5 3 2 1 1 2 3 4 6 6 7 7
-4 -4 -4 -4 -4 -3 -3 -2 -1 -1 -0 -0 1 2 3 4 6 7 7 6 5 4 2 1 2 3 4 5 5 6 5 5
-4 -4 -4 -4 -3 -3 -3 -2 -1 -0 -0 -0 0 1 3 4 6 7 7 7 6 4 3 2 2 3 4 4 5 5 4 4
-3 -3 -4 -4 -4 -3 -2 -1 -1 -0 -0 -0 0 1 3 4 6 6 6 6 6 5 4 3 3 3 4 4 4 4 3 3
-2 -3 -4 -4 -4 -3 -3 -1 -1 -0 -0 -0 0 1 2 4 5 6 6 6 6 6 6 5 5 4 4 4 4 3 3 3
-1 -3 -4 -4 -4 -4 -3 -2 -1 -1 -1 -0 0 1 2 3 4 5 6 6 6 7 7 7 7 6 5 5 4 4 4 3
-1 -2 -3 -4 -4 -4 -3 -2 -1 -1 -1 -1 -0 0 1 3 4 5 5 5 6 8 8 9 9 8 8 7 7 6 5 5
-2 -2 -3 -4 -4 -4 -2 -1 -1 -1 -1 -1 -1 0 1 2 3 4 5 6 7 9 9 10 10 10 9 9 9 8 8 8
-4 -4 -3 -4 -4 -3 -2 -1 -1 -1 -1 -1 -0 1 1 1 3 4 5 7 8 9 10 11 11 11 10 10 10 10 10 10
-5 -4 -4 -3 -3 -3 -2 -1 -1 -1 -1 -1 -0 1 1 1 2 3 5 7 9 10 10 11 11 11 11 11 11 11 12 12
-5 -4 -4 -3 -3 -3 -2 -2 -1 -1 -1 -1 -0 1 0 0 1 2 4 7 9 10 11 11 11 11 12 12 12 12 12 12
-5 -4 -3 -3 -3 -3 -3 -2 -1 -1 -1 -1 -0 0 0 0 1 2 3 6 8 9 10 11 12 12 12 12 13 13 13 12
-5 -4 -3 -3 -4 -4 -3 -2 -2 -1 -1 -1 -1 -0 0 -0 0 1 2 4 6 8 10 11 12 12 12 13 13 13 13 13
-4 -4 -4 -4 -4 -4 -3 -3 -2 -1 -1 -1 -1 -1 -0 -0 -0 0 1 2 4 5 7 10 12 12 13 13 13 13 13 12
-2 -4 -4 -4 -4 -3 -3 -3 -2 -2 -2 -2 -2 -1 -1 -0 -0 0 1 1 3 4 6 9 11 12 13 13 13 13 12 12